sat.trackr.live / text

‹ back to catalog

EZIE-B

NORAD 63250 · 2025-052AS

PAYLOAD ACTIVE UNKNOWN

§ Identity

Operator
Country
US
Launch date
2025-03-15
Launch site
AFWTR
Launch vehicle
Mass (kg)
RCS (m²)

External: N2YO · Heavens-Above · Gunter

§ Orbital elements

Epoch: 2026-05-24T15:25:54.736032Z

Period
96.19 min
Inclination
97.6926°
Eccentricity
0.0001586
Mean motion
14.97059904 rev/d
Perigee alt
574.9 km
Apogee alt
577.1 km
Semi-major
6,954.1 km
B*
2.9492e-4
RAAN
37.2441°
Arg perigee
273.3533°
Mean anomaly
86.7508°
Rev number
6,514

§ Raw data

EZIE-B1 63250U 25052AS  26144.64299463  .00003341  00000+0  29492-3 0  99992 63250  97.6926  37.2441 0001586 273.3533  86.7508 14.97059904 65142

JSON: /api/v1/satellites/63250 · /tle

For live sub-satellite position, see the globe view (requires WebGL).

§ Visibility from observer

Set your observer location to see the next 7 days of passes ≥ 10°. The values pass through the URL so the page stays shareable.

No JS? Fill the form by hand. The geolocation button needs JavaScript.

§ Radio — SatNOGS DB

ModeDescriptionDownlinkUplink
FM Mode S - Transmitter 1 2.211 GHz
FM Mode S - Transmitter 2 2.218 GHz
FM Mode S - Transmitter 3 2.268 GHz

3 transmitters · refreshed weekly from db.satnogs.org